Regional Weather Roundup
Issued by NWS

Home | Current Version | Previous Version | Text Only | Print | Product List | Glossary On
Versions: 1 2 3 4 5 6 7 8 9 10 11 12 13 14 15 16 17 18 19 20 21 22 23 24 25 26 27 28 29 30 31 32 33 34 35 36 37 38 39 40 41 42 43 44 45 46 47 48 49 50
000
ASUS45 KBOU 222207
RWRCO

WEATHER ROUNDUP FOR COLORADO
NATIONAL WEATHER SERVICE DENVER/BOULDER CO
400 PM MDT FRI AUG 22 2014

NOTE: "FAIR" INDICATES FEW OR NO CLOUDS BELOW 12000 FEET WITH NO
SIGNIFICANT WEATHER AND/OR OBSTRUCTIONS TO VISIBILITY.

COZ001>005-013-030-031-222300-
...NORTHWEST COLORADO...

CITY           SKY/WX    TMP DP  RH WIND       PRES   REMARKS
CRAIG          CLOUDY    63  54  72 N6        30.11F
HAYDEN         CLOUDY    64  46  52 N14       30.11S
MEEKER         CLOUDY    72  46  39 S8        30.08F
MOUNT WERNER   NOT AVBL
STEAMBOAT SPGS CLOUDY    69  46  43 SW6       30.11F
WALDEN         CLOUDY    64  41  42 SW10G16   30.20F
$$

COZ006>008-011-222300-
...WEST CENTRAL VALLEYS...

CITY           SKY/WX    TMP DP  RH WIND       PRES   REMARKS
GRAND JUNCTION PTSUNNY   74  57  55 E9        30.01F
MONTROSE       LGT RAIN  71  54  54 NW10      30.11S
EAGLE          CLOUDY    68  48  49 CALM      30.14F
RIFLE          CLOUDY    75  48  38 E8        30.03F
DELTA          NOT AVBL
NUCLA          TSTM      63  54  72 SE8       30.14R
$$

COZ017>023-064>068-222300-
...SOUTHWEST COLORADO...

CITY           SKY/WX    TMP DP  RH WIND       PRES   REMARKS
DURANGO        PTSUNNY   67  47  48 SE15G21   30.19F
CORTEZ         HVY RAIN  56  53  90 SE8       30.18R FOG
PAGOSA SPRINGS PTSUNNY   59  48  68 CALM      30.27F
TELLURIDE      CLOUDY    63  39  42 SE6       30.28F
WOLF CREEK PAS NOT AVBL
$$

COZ009-010-012-014-032>034-037-058>063-222300-
...CENTRAL COLORADO...

CITY           SKY/WX    TMP DP  RH WIND       PRES   REMARKS
ASPEN          CLOUDY    66  42  41 S12       30.19F
BUENA VISTA    CLOUDY    58  47  65 SE16      30.28S
COPPER MTN     CLOUDY    52  39  62 S17       30.48S
BERTHOUD PASS  PTSUNNY   41  41 100 MISG      30.52F
COTTONWOOD PAS CLOUDY    54  46  76 SE6       30.38S
GUNNISON       CLOUDY    63  45  51 E13       30.23F
KREMMLING      CLOUDY    64  50  59 S7        30.19S
LEADVILLE      CLOUDY    52  44  74 S13       30.34F
SALIDA         CLOUDY    59  54  84 SE9       30.34S
SUNLIGHT       CLOUDY    55  46  71 CALM      30.41S
WILKERSON PASS NOT AVBL
$$

COZ069>075-222300-
...SAN LUIS VALLEY/SANGRE DE CRISTO MOUNTAINS...

CITY           SKY/WX    TMP DP  RH WIND       PRES   REMARKS
ALAMOSA        LGT RAIN  54  50  86 NE3       30.29F
LA VETA PASS   NOT AVBL
SAGUACHE       LGT RAIN  54  52  94 SE12      30.32F
$$

COZ035-036-038>040-222300-
...NORTHERN COLORADO FRONT RANGE...

CITY           SKY/WX    TMP DP  RH WIND       PRES   REMARKS
DENVER INTL AP CLOUDY    67  63  87 E9        30.09F
DMNS CITY PARK   N/A     71  55  56 SW5       30.08S
AURORA         CLOUDY    67  58  71 SE8       30.12F
FRONT RANGE AP NOT AVBL
ERIE MUNI ARPT CLOUDY    74  55  52 SE8       30.07F
BOULDER MUN AP LGT RAIN  70  54  56 CALM      30.08F
CENTENNIAL     CLOUDY    66  57  72 SE10      30.12F
BROOMFIELD     CLOUDY    72  55  56 SW9       30.11
FORT COLLINS   CLOUDY    68  57  68 S8        30.08S
LONGMONT       LGT RAIN  71  58  63 W7        30.10F
$$

COZ041-046-047-076>085-087-088-222300-
...PIKES PEAK/PALMER DIVIDE AND SOUTHERN FOOTHILLS...

CITY           SKY/WX    TMP DP  RH WIND       PRES   REMARKS
COLO. SPRINGS  PTSUNNY   73  51  46 SW16      30.15F
A. F. ACADEMY  MOSUNNY   69  52  56 S7        30.16F
ELLICOTT       PTSUNNY   72  55  55 SE8       30.12S
FALCON         PTSUNNY   67  56  67 W6        30.19F
FORT CARSON    PTSUNNY   72  52  49 SW14      30.12F
LIMON          CLOUDY    66  60  81 NE16      30.08F
MONUMENT HILL  DRIZZLE   55  54  94 CALM      30.20F
TRINIDAD       CLOUDY    65  60  84 NW14      30.12F
$$

COZ042>045-048>051-090-091-222300-
...NORTHEAST COLORADO...

CITY           SKY/WX    TMP DP  RH WIND       PRES   REMARKS
GREELEY ARPT   CLOUDY    70  57  64 SE14      30.08S
AKRON          MOSUNNY   74  56  53 E12       30.07F
BURLINGTON     TSTM      64  62  93 NE15G29   30.04R FOG
WRAY             N/A     80  54  39 NE12      30.03F
STERLING       LGT RAIN  70  64  83 N7        30.06S
HOLYOKE        NOT AVBL
FORT MORGAN    PTSUNNY   67  58  73 E7        30.08F
$$

COZ086-089-092>099-222300-
...SOUTHEAST COLORADO...

CITY           SKY/WX    TMP DP  RH WIND       PRES   REMARKS
PUEBLO         LGT RAIN  76  54  46 W21G32    30.04F
LA JUNTA       MOSUNNY   89  59  36 VRB6      29.95F
LAMAR          SUNNY     91  62  37 NE8       29.89F
SPRINGFIELD      N/A     81  65  58 NW9       29.95F
$$


USA.gov is the U.S. government's official web portal to all federal, state and local government web resources and services.